TimeCST,TemperatureF,Dew PointF,Humidity,Sea Level PressureIn,VisibilityMPH,Wind Direction,Wind SpeedMPH,Gust SpeedMPH,PrecipitationIn,Events,Conditions,WindDirDegrees,DateUTC
12:15 AM,28.4,23.0,80,29.67,10.0,WNW,26.5,39.1,N/A,,Overcast,290,2013-02-11 06:15:00
12:35 AM,28.4,23.0,80,29.69,10.0,West,27.6,35.7,N/A,,Overcast,280,2013-02-11 06:35:00
12:55 AM,28.4,23.0,80,29.71,10.0,WNW,25.3,36.8,N/A,,Overcast,290,2013-02-11 06:55:00
1:15 AM,28.4,23.0,80,29.72,10.0,WNW,31.1,40.3,N/A,Rain,Freezing Rain,290,2013-02-11 07:15:00
1:35 AM,28.4,23.0,80,29.73,10.0,WNW,25.3,36.8,N/A,Rain,Freezing Rain,300,2013-02-11 07:35:00
2:15 AM,28.4,23.0,80,29.76,10.0,WNW,27.6,38.0,N/A,,Overcast,300,2013-02-11 08:15:00
2:35 AM,28.4,23.0,80,29.78,10.0,WNW,27.6,40.3,N/A,Rain,Freezing Rain,300,2013-02-11 08:35:00
2:55 AM,28.4,23.0,80,29.79,10.0,WNW,24.2,35.7,N/A,Rain,Freezing Rain,290,2013-02-11 08:55:00
3:15 AM,28.4,23.0,80,29.81,10.0,West,23.0,34.5,N/A,Rain,Freezing Rain,280,2013-02-11 09:15:00
3:35 AM,28.4,23.0,80,29.82,10.0,WNW,20.7,35.7,N/A,Snow,Light Snow,290,2013-02-11 09:35:00
3:55 AM,28.4,21.2,74,29.84,10.0,WNW,23.0,33.4,N/A,Rain,Freezing Rain,290,2013-02-11 09:55:00
4:15 AM,26.6,21.2,80,29.85,10.0,WNW,20.7,33.4,N/A,,Overcast,290,2013-02-11 10:15:00
4:35 AM,26.6,21.2,80,29.86,10.0,WNW,21.9,36.8,N/A,,Overcast,300,2013-02-11 10:35:00
4:55 AM,26.6,21.2,80,29.87,10.0,WNW,23.0,31.1,N/A,,Overcast,300,2013-02-11 10:55:00
5:15 AM,26.6,21.2,80,29.88,10.0,WNW,21.9,35.7,N/A,,Overcast,300,2013-02-11 11:15:00
5:35 AM,26.6,21.2,80,29.89,10.0,WNW,19.6,35.7,N/A,,Overcast,300,2013-02-11 11:35:00
5:55 AM,26.6,21.2,80,29.90,10.0,WNW,21.9,29.9,N/A,,Overcast,300,2013-02-11 11:55:00
6:15 AM,26.6,21.2,80,29.91,10.0,WNW,19.6,29.9,N/A,,Overcast,300,2013-02-11 12:15:00
6:35 AM,26.6,19.4,74,29.92,10.0,WNW,20.7,38.0,N/A,,Mostly Cloudy,300,2013-02-11 12:35:00
6:55 AM,26.6,21.2,80,29.93,10.0,NW,21.9,29.9,N/A,,Mostly Cloudy,310,2013-02-11 12:55:00
7:15 AM,26.6,21.2,80,29.94,-9999.0,WNW,16.1,25.3,N/A,,Overcast,300,2013-02-11 13:15:00
7:35 AM,26.6,23.0,86,29.95,10.0,NW,18.4,27.6,N/A,,Overcast,310,2013-02-11 13:35:00
7:55 AM,26.6,23.0,86,29.96,10.0,NW,16.1,-,N/A,,Overcast,310,2013-02-11 13:55:00
8:15 AM,26.6,21.2,80,29.97,10.0,WNW,15.0,25.3,N/A,,Overcast,300,2013-02-11 14:15:00
8:35 AM,26.6,23.0,86,29.99,9.0,WNW,17.3,-,N/A,,Overcast,300,2013-02-11 14:35:00
8:55 AM,26.6,21.2,80,29.99,9.0,WNW,15.0,23.0,N/A,,Overcast,290,2013-02-11 14:55:00
9:15 AM,26.6,21.2,80,30.00,9.0,WNW,20.7,-,N/A,,Overcast,290,2013-02-11 15:15:00
9:35 AM,26.6,23.0,86,30.01,9.0,WNW,20.7,28.8,N/A,,Overcast,300,2013-02-11 15:35:00
9:55 AM,28.4,21.2,74,30.02,10.0,WNW,23.0,31.1,N/A,,Overcast,290,2013-02-11 15:55:00
10:15 AM,28.4,21.2,74,30.03,9.0,NW,21.9,31.1,N/A,,Overcast,310,2013-02-11 16:15:00
10:35 AM,26.6,21.2,80,30.04,10.0,NW,19.6,28.8,N/A,,Overcast,310,2013-02-11 16:35:00
10:55 AM,28.4,21.2,74,30.05,10.0,NW,16.1,24.2,N/A,,Overcast,310,2013-02-11 16:55:00
11:15 AM,28.4,21.2,74,30.05,10.0,WNW,19.6,26.5,N/A,,Overcast,300,2013-02-11 17:15:00
11:35 AM,28.4,21.2,74,30.06,10.0,WNW,16.1,23.0,N/A,,Overcast,300,2013-02-11 17:35:00
11:55 AM,28.4,21.2,74,30.06,10.0,WNW,20.7,26.5,N/A,,Overcast,300,2013-02-11 17:55:00
12:15 PM,28.4,21.2,74,30.06,10.0,West,19.6,-,N/A,,Overcast,280,2013-02-11 18:15:00
12:35 PM,28.4,23.0,80,30.06,10.0,WNW,18.4,25.3,N/A,,Overcast,300,2013-02-11 18:35:00
12:55 PM,28.4,23.0,80,30.06,10.0,WNW,16.1,26.5,N/A,,Overcast,290,2013-02-11 18:55:00
1:15 PM,28.4,21.2,74,30.06,10.0,WNW,13.8,21.9,N/A,,Overcast,290,2013-02-11 19:15:00
1:35 PM,28.4,21.2,74,30.06,10.0,WNW,17.3,-,N/A,,Overcast,300,2013-02-11 19:35:00
1:55 PM,30.2,21.2,69,30.06,10.0,WNW,18.4,26.5,N/A,,Overcast,300,2013-02-11 19:55:00
2:15 PM,28.4,21.2,74,30.07,10.0,WNW,15.0,23.0,N/A,,Overcast,290,2013-02-11 20:15:00
2:35 PM,28.4,21.2,74,30.07,10.0,WNW,13.8,-,N/A,,Overcast,300,2013-02-11 20:35:00
2:55 PM,28.4,21.2,74,30.07,10.0,WNW,17.3,-,N/A,,Overcast,300,2013-02-11 20:55:00
3:15 PM,28.4,21.2,74,30.07,10.0,WNW,16.1,-,N/A,,Overcast,290,2013-02-11 21:15:00
3:35 PM,28.4,23.0,80,30.08,10.0,WNW,16.1,-,N/A,,Overcast,300,2013-02-11 21:35:00
3:55 PM,28.4,21.2,74,30.09,10.0,WNW,15.0,-,N/A,,Overcast,300,2013-02-11 21:55:00
4:55 PM,28.4,21.2,74,30.09,10.0,West,13.8,20.7,N/A,,Overcast,280,2013-02-11 22:55:00
5:15 PM,28.4,21.2,74,30.09,10.0,WNW,15.0,-,N/A,,Overcast,300,2013-02-11 23:15:00
5:35 PM,28.4,21.2,74,30.09,10.0,WNW,13.8,19.6,N/A,,Overcast,300,2013-02-11 23:35:00
5:55 PM,26.6,21.2,80,30.09,10.0,NW,15.0,-,N/A,,Overcast,310,2013-02-11 23:55:00
6:15 PM,26.6,21.2,80,30.10,10.0,WNW,11.5,-,N/A,,Overcast,290,2013-02-12 00:15:00
6:35 PM,26.6,21.2,80,30.11,10.0,NW,9.2,15.0,N/A,,Overcast,310,2013-02-12 00:35:00
6:55 PM,26.6,21.2,80,30.10,10.0,West,10.4,-,N/A,,Overcast,280,2013-02-12 00:55:00
7:15 PM,26.6,21.2,80,30.10,10.0,WNW,10.4,-,N/A,,Overcast,300,2013-02-12 01:15:00
7:35 PM,26.6,21.2,80,30.11,10.0,West,6.9,-,N/A,,Overcast,280,2013-02-12 01:35:00
7:55 PM,26.6,21.2,80,30.11,10.0,West,12.7,-,N/A,,Overcast,280,2013-02-12 01:55:00
8:15 PM,26.6,21.2,80,30.11,10.0,WNW,13.8,-,N/A,,Overcast,300,2013-02-12 02:15:00
8:35 PM,26.6,21.2,80,30.11,10.0,WNW,13.8,-,N/A,,Overcast,300,2013-02-12 02:35:00
8:55 PM,26.6,21.2,80,30.11,10.0,WNW,12.7,-,N/A,,Overcast,290,2013-02-12 02:55:00
9:15 PM,26.6,21.2,80,30.11,10.0,West,10.4,-,N/A,,Overcast,280,2013-02-12 03:15:00
9:35 PM,26.6,21.2,80,30.11,10.0,WNW,8.1,-,N/A,,Overcast,290,2013-02-12 03:35:00
9:55 PM,26.6,21.2,80,30.11,10.0,WNW,12.7,-,N/A,,Overcast,300,2013-02-12 03:55:00
10:15 PM,26.6,19.4,74,30.11,10.0,NW,11.5,-,N/A,,Overcast,310,2013-02-12 04:15:00
10:35 PM,26.6,19.4,74,30.10,10.0,WNW,11.5,-,N/A,,Overcast,300,2013-02-12 04:35:00
10:55 PM,26.6,19.4,74,30.11,10.0,WNW,10.4,-,N/A,,Overcast,300,2013-02-12 04:55:00
11:15 PM,26.6,19.4,74,30.11,10.0,WNW,8.1,13.8,N/A,,Overcast,290,2013-02-12 05:15:00
11:35 PM,26.6,19.4,74,30.12,10.0,West,6.9,13.8,N/A,,Overcast,270,2013-02-12 05:35:00
11:55 PM,26.6,19.4,74,30.12,10.0,West,10.4,-,N/A,,Overcast,270,2013-02-12 05:55:00